When you browse on this site, cookies collect data to enhance your experience and personalize the content and advertising you see.
Visit our Privacy Policy to learn more. By continuing to use the site, you agree to this use of cookies and data.
  • en Belgique
  • Liste des pays
  • À 7 jours
  • Température de l'eau
  • Carte satellitaire
  • Carte météo
  • Widgets météo
  • user-avatar
    Se connecter

    Météo par heure à Tiranё

    Ce jour, 21 Novembre, Mercredi

    Heure Température Précipitation Vent Pression Humidité
    00:00 +14°C° 2 mm 7 m/s 748 mmHg 89%
    01:00 +13°C° 0 mm 4 m/s 748 mmHg 93%
    02:00 +13°C° 2 mm 4 m/s 748 mmHg 92%
    03:00 +13°C° 2 mm 4 m/s 748 mmHg 91%
    04:00 +13°C° 2 mm 4 m/s 748 mmHg 90%
    05:00 +13°C° 0.4 mm 3 m/s 748 mmHg 89%
    06:00 +13°C° 0.4 mm 3 m/s 748 mmHg 88%
    07:00 +12°C° 0 mm 3 m/s 749 mmHg 89%
    08:00 +13°C° 0.3 mm 3 m/s 749 mmHg 86%
    09:00 +14°C° 0.3 mm 3 m/s 749 mmHg 82%
    10:00 +16°C° 0.3 mm 3 m/s 750 mmHg 79%
    11:00 +17°C° 0.4 mm 3 m/s 750 mmHg 75%
    12:00 +17°C° 0.4 mm 3 m/s 750 mmHg 72%
    13:00 +18°C° 0.4 mm 3 m/s 750 mmHg 69%
    14:00 +17°C° 0.5 mm 3 m/s 750 mmHg 73%
    15:00 +17°C° 0.5 mm 3 m/s 751 mmHg 77%
    16:00 +16°C° 0.5 mm 3 m/s 751 mmHg 82%
    17:00 +14°C° 0.4 mm 3 m/s 751 mmHg 84%
    18:00 +13°C° 0.4 mm 3 m/s 752 mmHg 87%
    19:00 +13°C° 0.4 mm 3 m/s 752 mmHg 90%
    20:00 +13°C° 0.2 mm 3 m/s 752 mmHg 89%
    21:00 +12°C° 0.2 mm 3 m/s 753 mmHg 89%
    22:00 +12°C° 0.2 mm 3 m/s 753 mmHg 89%
    23:00 +12°C° 0.1 mm 3 m/s 753 mmHg 89%

    Demain, 22 Novembre, Jeudi

    Heure Température Précipitation Vent Pression Humidité
    00:00 +13°C° 0.1 mm 2 m/s 754 mmHg 89%
    01:00 +13°C° 0.1 mm 2 m/s 754 mmHg 89%
    02:00 +13°C° 0 mm 2 m/s 754 mmHg 89%
    03:00 +12°C° 0 mm 2 m/s 754 mmHg 89%
    04:00 +12°C° 0 mm 2 m/s 754 mmHg 89%
    05:00 +12°C° 0 mm 2 m/s 754 mmHg 88%
    06:00 +12°C° 0 mm 2 m/s 754 mmHg 88%
    07:00 +12°C° 0 mm 2 m/s 755 mmHg 87%
    08:00 +14°C° 0.1 mm 2 m/s 755 mmHg 81%
    09:00 +15°C° 0.1 mm 2 m/s 755 mmHg 75%
    10:00 +18°C° 0.1 mm 1 m/s 755 mmHg 69%
    11:00 +18°C° 0 mm 1 m/s 755 mmHg 66%
    12:00 +19°C° 0 mm 1 m/s 755 mmHg 64%
    13:00 +19°C° 0 mm 1 m/s 755 mmHg 62%
    14:00 +17°C° 0.1 mm 2 m/s 755 mmHg 67%
    15:00 +16°C° 0.1 mm 2 m/s 755 mmHg 71%
    16:00 +16°C° 0.1 mm 2 m/s 755 mmHg 76%
    17:00 +15°C° 0.1 mm 1 m/s 756 mmHg 79%
    18:00 +14°C° 0.1 mm 1 m/s 756 mmHg 82%
    19:00 +13°C° 0.1 mm 1 m/s 757 mmHg 85%
    20:00 +13°C° 0 mm 1 m/s 757 mmHg 85%
    21:00 +13°C° 0 mm 1 m/s 757 mmHg 85%
    22:00 +13°C° 0 mm 1 m/s 758 mmHg 85%
    23:00 +12°C° 0 mm 1 m/s 758 mmHg 84%

    Après-demain, 23 Novembre, Vendredi

    Heure Température Précipitation Vent Pression Humidité
    00:00 +12°C° 0 mm 1 m/s 758 mmHg 84%
    01:00 +12°C° 0 mm 1 m/s 758 mmHg 83%
    02:00 +12°C° 0 mm 1 m/s 758 mmHg 82%
    03:00 +12°C° 0 mm 1 m/s 758 mmHg 82%
    04:00 +11°C° 0 mm 1 m/s 758 mmHg 81%
    05:00 +11°C° 0 mm 1 m/s 759 mmHg 81%
    06:00 +10°C° 0 mm 2 m/s 759 mmHg 80%
    07:00 +10°C° 0 mm 2 m/s 759 mmHg 80%
    08:00 +13°C° 0 mm 2 m/s 759 mmHg 73%
    09:00 +15°C° 0 mm 1 m/s 760 mmHg 66%
    10:00 +18°C° 0 mm 1 m/s 760 mmHg 60%
    11:00 +18°C° 0 mm 1 m/s 760 mmHg 57%
    12:00 +19°C° 0 mm 1 m/s 759 mmHg 54%
    13:00 +20°C° 0 mm 1 m/s 759 mmHg 51%
    14:00 +18°C° 0 mm 2 m/s 759 mmHg 56%
    15:00 +16°C° 0 mm 2 m/s 759 mmHg 60%
    16:00 +15°C° 0 mm 2 m/s 759 mmHg 65%
    17:00 +15°C° 0 mm 2 m/s 759 mmHg 67%
    18:00 +14°C° 0 mm 2 m/s 759 mmHg 69%
    19:00 +13°C° 0 mm 2 m/s 760 mmHg 72%
    20:00 +13°C° 0 mm 2 m/s 760 mmHg 72%
    21:00 +13°C° 0 mm 2 m/s 760 mmHg 73%
    22:00 +13°C° 0 mm 2 m/s 760 mmHg 74%
    23:00 +12°C° 0 mm 2 m/s 760 mmHg 74%

    24 Novembre, Samedi

    Heure Température Précipitation Vent Pression Humidité
    00:00 +12°C° 0 mm 2 m/s 760 mmHg 75%
    01:00 +12°C° 0 mm 2 m/s 759 mmHg 75%
    02:00 +12°C° 0 mm 2 m/s 759 mmHg 75%
    03:00 +11°C° 0 mm 3 m/s 759 mmHg 74%
    04:00 +11°C° 0 mm 3 m/s 759 mmHg 74%
    05:00 +11°C° 0 mm 3 m/s 758 mmHg 73%
    06:00 +11°C° 0 mm 3 m/s 758 mmHg 73%
    07:00 +11°C° 0 mm 4 m/s 758 mmHg 72%
    08:00 +12°C° 0 mm 4 m/s 758 mmHg 66%
    09:00 +14°C° 0 mm 4 m/s 758 mmHg 60%
    10:00 +15°C° 0 mm 4 m/s 758 mmHg 54%
    11:00 +17°C° 0 mm 4 m/s 758 mmHg 54%
    12:00 +16°C° 0 mm 5 m/s 757 mmHg 53%
    13:00 +17°C° 0 mm 5 m/s 757 mmHg 52%
    14:00 +16°C° 0.3 mm 5 m/s 756 mmHg 56%
    15:00 +15°C° 0.3 mm 5 m/s 756 mmHg 60%
    16:00 +14°C° 0.3 mm 5 m/s 756 mmHg 65%
    17:00 +14°C° 0.4 mm 5 m/s 756 mmHg 65%
    18:00 +14°C° 0.4 mm 5 m/s 756 mmHg 65%
    19:00 +14°C° 0.4 mm 5 m/s 756 mmHg 65%
    20:00 +14°C° 0.2 mm 5 m/s 756 mmHg 67%
    21:00 +13°C° 0.2 mm 5 m/s 756 mmHg 68%
    22:00 +13°C° 0.2 mm 5 m/s 756 mmHg 70%
    23:00 +13°C° 0.1 mm 5 m/s 756 mmHg 72%

    25 Novembre, Dimanche

    Heure Température Précipitation Vent Pression Humidité
    00:00 +13°C° 0.1 mm 5 m/s 756 mmHg 73%
    01:00 +13°C° 0.1 mm 5 m/s 755 mmHg 74%
    02:00 +12°C° 0.1 mm 5 m/s 755 mmHg 75%
    03:00 +12°C° 0.1 mm 5 m/s 755 mmHg 77%
    04:00 +12°C° 0.1 mm 4 m/s 754 mmHg 78%
    05:00 +12°C° 0 mm 4 m/s 754 mmHg 79%
    06:00 +12°C° 0 mm 4 m/s 754 mmHg 80%
    07:00 +12°C° 0 mm 4 m/s 754 mmHg 80%
    08:00 +13°C° 0 mm 4 m/s 754 mmHg 74%
    09:00 +15°C° 0 mm 4 m/s 754 mmHg 68%
    10:00 +18°C° 0 mm 4 m/s 753 mmHg 62%
    11:00 +19°C° 0.1 mm 4 m/s 753 mmHg 60%
    12:00 +19°C° 0.1 mm 4 m/s 752 mmHg 57%
    13:00 +20°C° 0.1 mm 4 m/s 751 mmHg 55%
    14:00 +19°C° 0.8 mm 4 m/s 751 mmHg 62%
    15:00 +18°C° 0.8 mm 4 m/s 751 mmHg 69%
    16:00 +17°C° 0.8 mm 4 m/s 750 mmHg 75%
    17:00 +15°C° 2.9 mm 4 m/s 750 mmHg 78%
    18:00 +15°C° 2.9 mm 4 m/s 750 mmHg 81%
    19:00 +14°C° 2.9 mm 3 m/s 750 mmHg 84%
    20:00 +14°C° 3 mm 4 m/s 749 mmHg 84%
    21:00 +14°C° 3 mm 4 m/s 749 mmHg 84%
    22:00 +14°C° 3 mm 5 m/s 748 mmHg 84%
    23:00 +14°C° 4.5 mm 4 m/s 747 mmHg 85%

    26 Novembre, Lundi

    Heure Température Précipitation Vent Pression Humidité
    00:00 +14°C° 4.5 mm 4 m/s 747 mmHg 86%
    01:00 +14°C° 4.5 mm 4 m/s 746 mmHg 86%
    02:00 +14°C° 1.9 mm 3 m/s 746 mmHg 86%
    03:00 +14°C° 1.9 mm 3 m/s 746 mmHg 86%
    04:00 +14°C° 1.9 mm 3 m/s 746 mmHg 86%
    05:00 +14°C° 0.7 mm 3 m/s 746 mmHg 89%
    06:00 +14°C° 0.7 mm 3 m/s 746 mmHg 92%
    07:00 +13°C° 0.7 mm 3 m/s 746 mmHg 94%
    08:00 +14°C° 0.9 mm 3 m/s 746 mmHg 94%
    09:00 +14°C° 0.9 mm 3 m/s 747 mmHg 94%
    10:00 +14°C° 0.9 mm 3 m/s 747 mmHg 94%
    11:00 +14°C° 0.9 mm 3 m/s 747 mmHg 93%
    12:00 +14°C° 0.9 mm 4 m/s 747 mmHg 92%
    13:00 +14°C° 0.9 mm 4 m/s 747 mmHg 92%
    14:00 +14°C° 0.4 mm 4 m/s 747 mmHg 91%
    15:00 +14°C° 0.4 mm 3 m/s 747 mmHg 90%
    16:00 +14°C° 0.4 mm 3 m/s 747 mmHg 90%
    17:00 +14°C° 0.1 mm 2 m/s 748 mmHg 91%
    18:00 +14°C° 0.1 mm 2 m/s 748 mmHg 92%
    19:00 +13°C° 0.1 mm 1 m/s 748 mmHg 93%
    20:00 +13°C° 0.2 mm 2 m/s 749 mmHg 92%
    21:00 +13°C° 0.2 mm 2 m/s 749 mmHg 92%
    22:00 +11°C° 0.2 mm 3 m/s 749 mmHg 92%
    23:00 +11°C° 0.4 mm 3 m/s 749 mmHg 90%
    Voir plus